Weather in Naples

Italy     40°51′11″N   14°14′58″E
temp.,
°C
wind,
m/s
gust,
m/s
humid.,
%
clouds,
%
prec.,
mm/h
press.,
hPa
HPBL,
m
14 june, mon
mon1423:00+23sse11721 0.0 1018120
02:00+23s22760 0.0 1017181
05:00+22se32780 0.0 1016240
08:00+23ese12725 0.0 1017253
11:00+24ssw33650 0.0 1017478
14:00+24ssw44670 0.0 1016399
17:00+25wsw22650 0.0 1015392
20:00+24wnw346749 0.0 1015290
15 june, tue
tue1523:00+25ene135641 0.0 1015133
02:00+24nne33490 0.0 101598
05:00+22ne56420 0.0 1016232
08:00+22ne34440 0.0 1017359
11:00+25sse13390 0.0 1017449
14:00+25sw65460 0.0 1016748
17:00+24w55540 0.0 1016436
20:00+24wnw345997 0.0 1016272
16 june, wed
wed1623:00+24wnw33615 0.0 1017145
02:00+23nw236795 0.0 1016163
05:00+23wnw1168100 0.0 1016155
08:00+22sse3368100 0.0 1017311
11:00+22s3365100 0.0 1017382
14:00+24sw3262100 0.0 1017437
17:00+24wsw335594 0.0 1016483
20:00+24w235980 0.0 1016226
17 june, thu
thu1723:00+24nw116198 0.0 1016100
02:00+23wsw116455 0.0 101641
05:00+23ssw1164100 0.0 101668
08:00+23ese116196 0.0 1017239
11:00+24ssw326119 0.0 1018399
14:00+25sw325568 0.0 1018422
17:00+25wsw44575 0.0 1018454
20:00+25wnw115845 0.0 1017158
18 june, fri
fri1823:00+24wnw225786 0.0 101884
02:00+24wnw225997 0.0 101730
05:00+23nw226058 0.0 101831
08:00+24sw115952 0.1 101889
11:00+25ssw325316 0.0 1017351
14:00+25wsw335581 0.0 1017325
17:00+26w33545 0.0 1017325
20:00+26wnw335597 0.0 1016146